Regional Weather Roundup
Issued by NWS

Home | Current Version | Previous Version | Text Only | Print | Product List | Glossary On
Versions: 1 2 3 4 5 6 7 8 9 10 11 12 13 14 15 16 17 18 19 20 21 22 23 24 25 26 27 28 29 30 31 32 33 34 35 36 37 38 39 40 41 42 43 44 45 46 47 48 49 50
977
ASUS43 KLSX 052310
RWRMO

WEATHER SUMMARY FOR MISSOURI
NATIONAL WEATHER SERVICE SPRINGFIELD MO
500 PM CST FRI FEB 05 2016

NOTE: "FAIR" INDICATES FEW OR NO CLOUDS BELOW 12,000 FEET WITH NO
       SIGNIFICANT WEATHER AND/OR OBSTRUCTIONS TO VISIBILITY.
       CURRENT SKY AND/OR WEATHER CONDITIONS ARE NOT AVAILABLE FOR
       CHILLICOTHE AND FARMINGTON.

MOZ001>031-035>038-043-044-053-054-060000-
...NORTHERN AND WESTERN MISSOURI...

CITY           SKY/WX    TMP DP  RH WIND       PRES   REMARKS
KANSAS CTY INT CLOUDY    40  23  50 S7        30.28F
KANSAS C DTWN  CLOUDY    44  20  38 SW3       30.30S
LEE`S SUMMIT   CLOUDY    42  21  43 S7        30.29F
ST JOSEPH      CLOUDY    39  23  52 S8        30.29S
CHILLICOTHE      N/A     37  22  54 SE7       30.33F
KIRKSVILLE     MOCLDY    34  17  50 S3        30.34R

$$
MOZ066>068-077>081-088>096-101>105-060000-
...SOUTHWEST MISSOURI...

CITY           SKY/WX    TMP DP  RH WIND       PRES   REMARKS
SPRINGFIELD    CLOUDY    49  17  28 SW7       30.30S
JOPLIN         PTCLDY    49  20  31 S7        30.29F

$$
MOZ032>034-039>042-045>050-055>058-069>072-060000-
...CENTRAL MISSOURI...

CITY           SKY/WX    TMP DP  RH WIND       PRES   REMARKS
COLUMBIA       CLEAR     41  13  31 CALM      30.34S
JEFFERSON CITY CLEAR     44  18  35 CALM      30.35S
ROLLA          CLEAR     44  18  35 CALM      30.31R
SEDALIA        CLEAR     45  19  35 NE3       30.32F
WHITEMAN AFB   PTCLDY    42  22  44 S3        30.31S
WARRENSBURG    MOCLDY    41  23  48 CALM      30.32S
OSAGE BEACH    CLEAR     45  19  36 NE3       30.32S

$$
MOZ051-052-059>065-060000-
...EAST CENTRAL MISSOURI...

CITY           SKY/WX    TMP DP  RH WIND       PRES   REMARKS
ST LOUIS INTL  PTCLDY    40  15  36 CALM      30.37F
SPIRIT OF STL  PTCLDY    40  17  39 CALM      30.36R
ST CHARLES     CLEAR     38  18  44 S3        30.37R

$$
MOZ072>076-082>087-097>100-106>115-060000-
...SOUTH CENTRAL AND SOUTHEAST MISSOURI...

CITY           SKY/WX    TMP DP  RH WIND       PRES   REMARKS
CAPE GIRARDEAU CLEAR     47  24  40 S6        30.35F
FARMINGTON     CLEAR     45  15  30 CALM      30.33F
POPLAR BLUFF   CLEAR     49  22  34 S8        30.34S
WEST PLAINS    CLEAR     49  15  25 SW6       30.32S

$$




USA.gov is the U.S. government's official web portal to all federal, state and local government web resources and services.